2025-199A

Last updated on Sat Sep 13 2025 00:02:08 GMT+0000 (Coordinated Universal Time)

1 65544U 25199A 25255.56112508 .00000316 00000+0 12369-3 0 9990 2 65544 85.9956 168.6661 0011487 235.6302 124.3803 14.26258581 849
UTC large
Height (km)
Speed (km/s)
/
Latitude / Longitude
Inclination (degrees)
Orbital Period (minutes)
Azimuth
Elevation
Range (km)
Doppler Factor

Next 0 passes for location: London (51.5072 / 0.1276)

Sorry there are no passes over London.